Time,TemperatureF,DewpointF,PressureIn,WindDirection,WindDirectionDegrees,WindSpeedMPH,WindSpeedGustMPH,Humidity,HourlyPrecipIn,Conditions,Clouds,dailyrainin,SolarRadiationWatts/m^2,SoftwareType,DateUTC
2013-09-20 00:03:00,60.0,51.0,-100.00,WNW,290,12.0,17.0,73,0.00,,,0.26,0.000000,,2013-09-20 05:03:00,
2013-09-20 00:11:00,58.0,53.0,-100.00,West,262,10.0,15.0,82,0.00,,,0.26,0.000000,,2013-09-20 05:11:00,
2013-09-20 00:43:00,58.0,53.0,-100.00,West,262,10.0,15.0,82,0.00,,,0.26,0.000000,,2013-09-20 05:43:00,
2013-09-20 00:53:00,58.0,53.0,-100.00,West,262,10.0,15.0,82,0.00,,,0.26,0.000000,,2013-09-20 05:53:00,
2013-09-20 01:03:00,58.0,53.0,-100.00,West,262,10.0,15.0,82,0.00,,,0.26,0.000000,,2013-09-20 06:03:00,
2013-09-20 01:11:00,57.0,54.0,-100.00,West,277,12.0,19.0,89,0.00,,,0.26,0.000000,,2013-09-20 06:11:00,
2013-09-20 01:42:00,57.0,54.0,-100.00,West,277,12.0,19.0,89,0.00,,,0.26,0.000000,,2013-09-20 06:42:00,
2013-09-20 01:52:00,57.0,54.0,-100.00,West,277,12.0,19.0,89,0.00,,,0.26,0.000000,,2013-09-20 06:52:00,
2013-09-20 02:02:00,57.0,54.0,-100.00,West,277,12.0,19.0,89,0.00,,,0.26,0.000000,,2013-09-20 07:02:00,
2013-09-20 02:11:00,55.0,52.0,-100.00,West,266,12.0,21.0,89,0.00,,,0.26,0.000000,,2013-09-20 07:11:00,
2013-09-20 02:42:00,55.0,52.0,-100.00,West,266,12.0,21.0,89,0.00,,,0.26,0.000000,,2013-09-20 07:42:00,
2013-09-20 02:53:00,55.0,52.0,-100.00,West,266,12.0,21.0,89,0.00,,,0.26,0.000000,,2013-09-20 07:53:00,
2013-09-20 03:02:00,55.0,52.0,-100.00,West,266,12.0,21.0,89,0.00,,,0.26,0.000000,,2013-09-20 08:02:00,
2013-09-20 03:11:00,53.0,51.0,-100.00,West,265,9.0,18.0,93,0.00,,,0.26,0.000000,,2013-09-20 08:11:00,
2013-09-20 03:42:00,53.0,51.0,-100.00,West,265,9.0,18.0,93,0.00,,,0.26,0.000000,,2013-09-20 08:42:00,
2013-09-20 03:52:00,53.0,51.0,-100.00,West,265,9.0,18.0,93,0.00,,,0.26,0.000000,,2013-09-20 08:52:00,
2013-09-20 04:01:00,53.0,51.0,-100.00,West,265,9.0,18.0,93,0.00,,,0.26,0.000000,,2013-09-20 09:01:00,
2013-09-20 04:11:00,53.0,52.0,-100.00,West,261,9.0,13.0,95,0.00,,,0.26,0.000000,,2013-09-20 09:11:00,
2013-09-20 04:44:00,53.0,52.0,-100.00,West,261,9.0,13.0,95,0.00,,,0.26,0.000000,,2013-09-20 09:44:00,
2013-09-20 04:53:00,53.0,52.0,-100.00,West,261,9.0,13.0,95,0.00,,,0.26,0.000000,,2013-09-20 09:53:00,
2013-09-20 05:03:00,53.0,52.0,-100.00,West,261,9.0,13.0,95,0.00,,,0.26,0.000000,,2013-09-20 10:03:00,
2013-09-20 05:11:00,55.0,53.0,-100.00,West,274,11.0,20.0,92,0.00,,,0.26,0.000000,,2013-09-20 10:11:00,
2013-09-20 05:42:00,55.0,53.0,-100.00,West,274,11.0,20.0,92,0.00,,,0.26,0.000000,,2013-09-20 10:42:00,
2013-09-20 05:53:00,55.0,53.0,-100.00,West,274,11.0,20.0,92,0.00,,,0.26,0.000000,,2013-09-20 10:53:00,
2013-09-20 06:03:00,55.0,53.0,-100.00,West,274,11.0,20.0,92,0.00,,,0.26,0.000000,,2013-09-20 11:03:00,
2013-09-20 06:11:00,54.0,54.0,-100.00,West,263,7.0,13.0,100,0.00,,,0.26,0.000000,,2013-09-20 11:11:00,
2013-09-20 06:42:00,54.0,54.0,-100.00,West,263,7.0,13.0,100,0.00,,,0.26,0.000000,,2013-09-20 11:42:00,
2013-09-20 06:52:00,54.0,54.0,-100.00,West,263,7.0,13.0,100,0.00,,,0.26,0.000000,,2013-09-20 11:52:00,
2013-09-20 07:02:00,54.0,54.0,-100.00,West,263,7.0,13.0,100,0.00,,,0.26,0.000000,,2013-09-20 12:02:00,
2013-09-20 07:11:00,55.0,55.0,-100.00,West,271,9.0,16.0,100,0.00,,,0.26,0.000000,,2013-09-20 12:11:00,
2013-09-20 07:43:00,55.0,55.0,-100.00,West,271,9.0,16.0,100,0.00,,,0.26,0.000000,,2013-09-20 12:43:00,
2013-09-20 07:52:00,55.0,55.0,-100.00,West,271,9.0,16.0,100,0.00,,,0.26,0.000000,,2013-09-20 12:52:00,
2013-09-20 08:02:00,55.0,55.0,-100.00,West,271,9.0,16.0,100,0.00,,,0.26,0.000000,,2013-09-20 13:02:00,
2013-09-20 08:11:00,55.0,54.0,-100.00,WNW,297,13.0,21.0,95,0.00,,,0.26,25.000000,,2013-09-20 13:11:00,
2013-09-20 08:42:00,55.0,54.0,-100.00,WNW,297,13.0,21.0,95,0.00,,,0.26,25.000000,,2013-09-20 13:42:00,
2013-09-20 08:52:00,55.0,54.0,-100.00,WNW,297,13.0,21.0,95,0.00,,,0.26,25.000000,,2013-09-20 13:52:00,
2013-09-20 09:02:00,55.0,54.0,-100.00,WNW,297,13.0,21.0,95,0.00,,,0.26,25.000000,,2013-09-20 14:02:00,
2013-09-20 09:11:00,56.0,52.0,-100.00,WNW,294,15.0,23.0,88,0.00,,,0.26,88.000000,,2013-09-20 14:11:00,
2013-09-20 09:42:00,56.0,52.0,-100.00,WNW,294,15.0,23.0,88,0.00,,,0.26,88.000000,,2013-09-20 14:42:00,
2013-09-20 09:52:00,56.0,52.0,-100.00,WNW,294,15.0,23.0,88,0.00,,,0.26,88.000000,,2013-09-20 14:52:00,
2013-09-20 10:02:00,56.0,52.0,-100.00,WNW,294,15.0,23.0,88,0.00,,,0.26,88.000000,,2013-09-20 15:02:00,
2013-09-20 10:11:00,56.0,51.0,-100.00,WNW,297,15.0,22.0,84,0.00,,,0.04,181.000000,,2013-09-20 15:11:00,
2013-09-20 10:44:00,56.0,51.0,-100.00,WNW,297,15.0,22.0,84,0.00,,,0.04,181.000000,,2013-09-20 15:44:00,
2013-09-20 10:54:00,56.0,51.0,-100.00,WNW,297,15.0,22.0,84,0.00,,,0.04,181.000000,,2013-09-20 15:54:00,
2013-09-20 11:04:00,56.0,51.0,-100.00,WNW,297,15.0,22.0,84,0.00,,,0.04,181.000000,,2013-09-20 16:04:00,
2013-09-20 11:11:00,59.0,50.0,-100.00,WNW,300,15.0,23.0,71,0.00,,,0.01,277.000000,,2013-09-20 16:11:00,
2013-09-20 11:43:00,59.0,50.0,-100.00,WNW,300,15.0,23.0,71,0.00,,,0.01,277.000000,,2013-09-20 16:43:00,
2013-09-20 11:53:00,59.0,50.0,-100.00,WNW,300,15.0,23.0,71,0.00,,,0.01,277.000000,,2013-09-20 16:53:00,
2013-09-20 12:03:00,59.0,50.0,-100.00,WNW,300,15.0,23.0,71,0.00,,,0.01,277.000000,,2013-09-20 17:03:00,
2013-09-20 12:11:00,62.0,50.0,-100.00,WNW,283,16.0,22.0,65,0.00,,,0.01,490.000000,,2013-09-20 17:11:00,
2013-09-20 12:43:00,62.0,50.0,-100.00,WNW,283,16.0,22.0,65,0.00,,,0.01,490.000000,,2013-09-20 17:43:00,
2013-09-20 12:53:00,62.0,50.0,-100.00,WNW,283,16.0,22.0,65,0.00,,,0.01,490.000000,,2013-09-20 17:53:00,
2013-09-20 13:02:00,62.0,50.0,-100.00,WNW,283,16.0,22.0,65,0.00,,,0.01,490.000000,,2013-09-20 18:02:00,
2013-09-20 13:11:00,63.0,49.0,-100.00,WNW,289,15.0,24.0,60,0.00,,,0.00,673.000000,,2013-09-20 18:11:00,
2013-09-20 13:42:00,63.0,49.0,-100.00,WNW,289,15.0,24.0,60,0.00,,,0.00,673.000000,,2013-09-20 18:42:00,
2013-09-20 13:52:00,63.0,49.0,-100.00,WNW,289,15.0,24.0,60,0.00,,,0.00,673.000000,,2013-09-20 18:52:00,
2013-09-20 14:02:00,63.0,49.0,-100.00,WNW,289,15.0,24.0,60,0.00,,,0.00,673.000000,,2013-09-20 19:02:00,
2013-09-20 14:11:00,61.0,48.0,-100.00,WNW,296,13.0,24.0,63,0.00,,,0.00,324.000000,,2013-09-20 19:11:00,
2013-09-20 14:42:00,61.0,48.0,-100.00,WNW,296,13.0,24.0,63,0.00,,,0.00,324.000000,,2013-09-20 19:42:00,
2013-09-20 14:53:00,61.0,48.0,-100.00,WNW,296,13.0,24.0,63,0.00,,,0.00,324.000000,,2013-09-20 19:53:00,
2013-09-20 15:03:00,61.0,48.0,-100.00,WNW,296,13.0,24.0,63,0.00,,,0.00,324.000000,,2013-09-20 20:03:00,
2013-09-20 15:11:00,60.0,51.0,-100.00,West,278,14.0,21.0,71,0.00,,,0.00,408.000000,,2013-09-20 20:11:00,
2013-09-20 15:42:00,60.0,51.0,-100.00,West,278,14.0,21.0,71,0.00,,,0.00,408.000000,,2013-09-20 20:42:00,
2013-09-20 15:52:00,60.0,51.0,-100.00,West,278,14.0,21.0,71,0.00,,,0.00,408.000000,,2013-09-20 20:52:00,
2013-09-20 16:02:00,60.0,51.0,-100.00,West,278,14.0,21.0,71,0.00,,,0.00,408.000000,,2013-09-20 21:02:00,
2013-09-20 16:11:00,58.0,49.0,-100.00,West,274,16.0,23.0,71,0.00,,,0.00,370.000000,,2013-09-20 21:11:00,
2013-09-20 16:45:00,58.0,49.0,-100.00,West,274,16.0,23.0,71,0.00,,,0.00,370.000000,,2013-09-20 21:45:00,
2013-09-20 16:55:00,58.0,49.0,-100.00,West,274,16.0,23.0,71,0.00,,,0.00,370.000000,,2013-09-20 21:55:00,
2013-09-20 17:04:00,58.0,49.0,-100.00,West,274,16.0,23.0,71,0.00,,,0.00,370.000000,,2013-09-20 22:04:00,
2013-09-20 17:11:00,58.0,49.0,-100.00,WNW,283,13.0,24.0,71,0.00,,,0.00,333.000000,,2013-09-20 22:11:00,
2013-09-20 17:44:00,58.0,49.0,-100.00,WNW,283,13.0,24.0,71,0.00,,,0.00,333.000000,,2013-09-20 22:44:00,
2013-09-20 17:53:00,58.0,49.0,-100.00,WNW,283,13.0,24.0,71,0.00,,,0.00,333.000000,,2013-09-20 22:53:00,
2013-09-20 18:02:00,58.0,49.0,-100.00,WNW,283,13.0,24.0,71,0.00,,,0.00,333.000000,,2013-09-20 23:02:00,
2013-09-20 18:11:00,56.0,46.0,-100.00,WNW,292,13.0,20.0,69,0.00,,,0.00,122.000000,,2013-09-20 23:11:00,
2013-09-20 18:42:00,56.0,46.0,-100.00,WNW,292,13.0,20.0,69,0.00,,,0.00,122.000000,,2013-09-20 23:42:00,
2013-09-20 18:53:00,56.0,46.0,-100.00,WNW,292,13.0,20.0,69,0.00,,,0.00,122.000000,,2013-09-20 23:53:00,
2013-09-20 19:02:00,56.0,46.0,-100.00,WNW,292,13.0,20.0,69,0.00,,,0.00,122.000000,,2013-09-21 00:02:00,
2013-09-20 19:11:00,55.0,47.0,-100.00,NW,304,9.0,19.0,74,0.00,,,0.00,38.000000,,2013-09-21 00:11:00,
2013-09-20 19:42:00,55.0,47.0,-100.00,NW,304,9.0,19.0,74,0.00,,,0.00,38.000000,,2013-09-21 00:42:00,
2013-09-20 19:52:00,55.0,47.0,-100.00,NW,304,9.0,19.0,74,0.00,,,0.00,38.000000,,2013-09-21 00:52:00,
2013-09-20 20:02:00,55.0,47.0,-100.00,NW,304,9.0,19.0,74,0.00,,,0.00,38.000000,,2013-09-21 01:02:00,
2013-09-20 20:11:00,53.0,47.0,-100.00,WNW,295,8.0,19.0,81,0.00,,,0.00,1.000000,,2013-09-21 01:11:00,
2013-09-20 20:42:00,53.0,47.0,-100.00,WNW,295,8.0,19.0,81,0.00,,,0.00,1.000000,,2013-09-21 01:42:00,
2013-09-20 20:52:00,53.0,47.0,-100.00,WNW,295,8.0,19.0,81,0.00,,,0.00,1.000000,,2013-09-21 01:52:00,
2013-09-20 21:02:00,53.0,47.0,-100.00,WNW,295,8.0,19.0,81,0.00,,,0.00,1.000000,,2013-09-21 02:02:00,
2013-09-20 21:11:00,51.0,47.0,-100.00,WNW,299,8.0,12.0,85,0.00,,,0.00,0.000000,,2013-09-21 02:11:00,
2013-09-20 21:42:00,51.0,47.0,-100.00,WNW,299,8.0,12.0,85,0.00,,,0.00,0.000000,,2013-09-21 02:42:00,
2013-09-20 21:52:00,51.0,47.0,-100.00,WNW,299,8.0,12.0,85,0.00,,,0.00,0.000000,,2013-09-21 02:52:00,
2013-09-20 22:02:00,51.0,47.0,-100.00,WNW,299,8.0,12.0,85,0.00,,,0.00,0.000000,,2013-09-21 03:02:00,
2013-09-20 22:11:00,50.0,47.0,-100.00,WNW,297,8.0,11.0,88,0.00,,,0.00,0.000000,,2013-09-21 03:11:00,
2013-09-20 22:44:00,50.0,47.0,-100.00,WNW,297,8.0,11.0,88,0.00,,,0.00,0.000000,,2013-09-21 03:44:00,
2013-09-20 22:55:00,50.0,47.0,-100.00,WNW,297,8.0,11.0,88,0.00,,,0.00,0.000000,,2013-09-21 03:55:00,
2013-09-20 23:04:00,50.0,47.0,-100.00,WNW,297,8.0,11.0,88,0.00,,,0.00,0.000000,,2013-09-21 04:04:00,
2013-09-20 23:11:00,50.0,47.0,-100.00,WNW,299,7.0,11.0,88,0.00,,,0.00,0.000000,,2013-09-21 04:11:00,
2013-09-20 23:44:00,50.0,47.0,-100.00,WNW,299,7.0,11.0,88,0.00,,,0.00,0.000000,,2013-09-21 04:44:00,
2013-09-20 23:54:00,50.0,47.0,-100.00,WNW,299,7.0,11.0,88,0.00,,,0.00,0.000000,,2013-09-21 04:54:00,